Weather History for KBDR - June, 2014

Change the Weather History Date:

Wednesday, June 25, 2014

  Actual Average Record
Temperature  
Mean Temperature 76 °F 72 °F  
Max Temperature 82 °F 80 °F 94 °F (1952)
Min Temperature 69 °F 63 °F 50 °F (1986)
Degree Days  
Heating Degree Days 0 0  
Month to date heating degree days 4 30  
Since 1 June heating degree days 4 30  
Since 1 July heating degree days 5618 5390  
Cooling Degree Days 11 7  
Month to date cooling degree days 101 106  
Year to date cooling degree days 124 130  
Since 1 June cooling degree days 101 106  
Growing Degree Days 26 (Base 50)    
Moisture  
Dew Point 68 °F    
Average Humidity 82    
Maximum Humidity 90    
Minimum Humidity 74    
Precipitation  
Precipitation T in 0.10 in 0.76 in (2012)
Month to date precipitation 3.98 3.14  
Year to date precipitation 25.64 21.01  
Snow  
Snow 0.00 in 0.00 in 0.00 in (2002)
Month to date snowfall 0.0 0.0  
Since 1 July snowfall 57.4 27.6  
Snow Depth 0.00 in    
Sea Level Pressure  
Sea Level Pressure 29.94 in    
Wind  
Wind Speed 9 mph (SSW)    
Max Wind Speed 17 mph    
Max Gust Speed 24 mph    
Visibility 10 miles    
Events Rain    
T = Trace of Precipitation, MM = Missing Value Source: NWS Daily Summary

Daily Weather History Graph

Daily Weather History Graph

Search for Another Location

Airport or City:

Trip Planner

Search our weather history database for the weather conditions in past years. The results will help you decide how hot, cold, wet, or windy it might be!

Date:

Astronomy

Jun. 25, 2014 Rise Set
Actual Time 5:21 AM EDT 8:29 PM EDT
Civil Twilight 4:47 AM EDT 9:02 PM EDT
Nautical Twilight 4:04 AM EDT 9:46 PM EDT
Astronomical Twilight 3:12 AM EDT 10:37 PM EDT
Moon 4:11 AM EDT (6/25) 6:58 PM EDT (6/25)
Length of Visible Light 16h 15m
Length of Day
15h 08m
Waning Crescent, 3% of the Moon is Illuminated
Jun 25
Waning Crescent
Jun 27
New
Jul 5
First Quarter
Jul 12
Full
Jul 18
Last Quarter

Hourly Weather History & Observations

Time (EDT) Temp. Heat Index Dew Point Humidity Pressure Visibility Wind Dir Wind Speed Gust Speed Precip Events Conditions
12:52 AM 70.0 °F - 62.1 °F 76% 30.04 in 10.0 mi SSW 8.1 mph - N/A   Clear
1:52 AM 70.0 °F - 63.0 °F 78% 30.03 in 10.0 mi SW 4.6 mph - N/A   Clear
2:40 AM 70.0 °F - 64.0 °F 81% 30.02 in 10.0 mi SSW 8.1 mph - N/A   Mostly Cloudy
2:52 AM 70.0 °F - 64.0 °F 81% 30.02 in 10.0 mi SSW 6.9 mph - N/A   Mostly Cloudy
3:52 AM 70.0 °F - 64.9 °F 84% 30.01 in 10.0 mi SSW 8.1 mph - N/A   Overcast
4:15 AM 70.0 °F - 64.9 °F 84% 30.00 in 10.0 mi SSW 8.1 mph - N/A   Overcast
4:52 AM 70.0 °F - 64.9 °F 84% 30.00 in 10.0 mi SSW 6.9 mph - N/A   Overcast
5:52 AM 71.1 °F - 66.0 °F 84% 30.00 in 10.0 mi SW 8.1 mph - N/A   Overcast
6:52 AM 71.1 °F - 66.9 °F 87% 30.00 in 10.0 mi SSW 8.1 mph - N/A   Overcast
7:52 AM 72.0 °F - 68.0 °F 87% 30.00 in 10.0 mi SW 13.8 mph - N/A   Overcast
8:52 AM 73.0 °F - 68.0 °F 84% 30.00 in 10.0 mi SW 11.5 mph - N/A   Overcast
9:52 AM 73.0 °F - 68.0 °F 84% 30.00 in 10.0 mi SW 8.1 mph - N/A   Overcast
10:19 AM 73.0 °F - 69.1 °F 87% 30.00 in 10.0 mi SW 6.9 mph - N/A   Overcast
10:52 AM 75.0 °F - 69.1 °F 82% 29.99 in 10.0 mi SW 9.2 mph - N/A   Overcast
11:52 AM 77.0 °F - 70.0 °F 79% 29.98 in 10.0 mi South 10.4 mph - N/A   Mostly Cloudy
12:02 PM 77.0 °F - 70.0 °F 79% 29.97 in 10.0 mi South 9.2 mph - N/A   Scattered Clouds
12:52 PM 78.1 °F - 70.0 °F 76% 29.96 in 10.0 mi South 8.1 mph - N/A   Partly Cloudy
1:52 PM 78.1 °F - 70.0 °F 76% 29.94 in 10.0 mi South 11.5 mph - N/A   Clear
2:52 PM 80.1 °F 83.6 °F 71.1 °F 74% 29.93 in 10.0 mi South 12.7 mph - N/A   Clear
3:52 PM 81.0 °F 84.9 °F 71.1 °F 72% 29.91 in 10.0 mi South 11.5 mph - N/A   Clear
4:52 PM 80.1 °F 83.6 °F 71.1 °F 74% 29.89 in 10.0 mi South 15.0 mph - N/A   Clear
5:52 PM 79.0 °F - 70.0 °F 74% 29.88 in 10.0 mi South 12.7 mph - N/A   Clear
6:52 PM 77.0 °F - 70.0 °F 79% 29.88 in 10.0 mi South 11.5 mph - N/A   Clear
7:35 PM 75.0 °F - 70.0 °F 84% 29.88 in 10.0 mi SSW 8.1 mph - N/A   Mostly Cloudy
7:49 PM 75.2 °F - 69.8 °F 83% 29.87 in 10.0 mi South 8.1 mph - N/A   Scattered Clouds
7:52 PM 75.0 °F - 70.0 °F 84% 29.88 in 10.0 mi SSW 9.2 mph - N/A   Scattered Clouds
8:48 PM 73.4 °F - 69.8 °F 88% 29.86 in 10.0 mi South 6.9 mph - N/A   Mostly Cloudy
8:52 PM 73.9 °F - 70.0 °F 87% 29.86 in 10.0 mi South 8.1 mph - N/A   Mostly Cloudy
9:20 PM 73.0 °F - 70.0 °F 90% 29.87 in 10.0 mi South 6.9 mph - 0.00 in   Scattered Clouds
9:52 PM 73.0 °F - 69.1 °F 87% 29.86 in 10.0 mi SSW 5.8 mph - 0.00 in   Partly Cloudy
10:22 PM 73.0 °F - 69.1 °F 87% 29.87 in 10.0 mi SW 8.1 mph - N/A   Mostly Cloudy
10:30 PM 73.9 °F - 70.0 °F 87% 29.87 in 10.0 mi SSW 6.9 mph - N/A   Overcast
10:38 PM 73.9 °F - 70.0 °F 87% 29.87 in 10.0 mi SW 5.8 mph - N/A   Overcast
10:52 PM 73.9 °F - 71.1 °F 91% 29.86 in 10.0 mi SSW 5.8 mph - 0.00 in Rain Light Rain
11:13 PM 73.9 °F - 70.0 °F 87% 29.85 in 10.0 mi South 8.1 mph - 0.00 in   Overcast
11:52 PM 73.0 °F - 70.0 °F 90% 29.85 in 10.0 mi SSW 5.8 mph - 0.00 in   Overcast